Content
SEND FEEDBACK

Daily
Averages
Monthly
Summary
United States of America

CAMP QUEZON, GUAM


Home > North America > United States > Guam
Elevation: 82 meters     Latitude: 13 28N     Longitude: 144 48E

WEATHER
 
SELECT A DAY
Number of Records: 208,997;   Date Range: 1/1/95 - 7/26/14
 
SHARE

PRINT THIS DATA

[ ← Previous Day ]
WEATHER ALMANAC - 27 APRIL, 2013
[ Next Day → ]
[ °F ]   °C
Weather ElementAverageHighLow
Temperature29.9 °C32.8 °C (11:54 am)27.2 °C (2:54 am)
Dewpoint23.2 °C23.9 °C (1:54 am)21.7 °C (3:54 pm)
Humidity67.3 %82 % (2:54 am)54 % (3:54 pm)
Barometer1011.9 hPa1013.5 hPa (8:27 am)1009.5 hPa (2:54 pm)
Wind Speed16.3 km/h24.1 km/h (1:54 pm)
Wind Gust33.3 km/h (1:54 pm)
Weather ElementAverage
Visibility15.6 km
Wind DirectionE (89 °)

Weather ElementTotal
Precipitation---
Cooling Degree Days11.7 (Base 18.3)
Growing Degree Days20 (Base 10)
Averaged from 30 records on 27 April, 2013
WEATHER CONDITIONS BREAKOUT
WIND DIRECTION BREAKOUT
WEATHER BY HOUR - 27 APRIL, 2013
[ °F ]   °C
Local TimeTemperatureDewpointHumidityBarometerVisibilityWind DirectionWind SpeedGust SpeedPrecipitationEventsConditions
1:54 AM27.8 °C23.9 °C79 %1011.2 hPa16.1 kmEast (100°)13 km/hClear
2:54 AM27.2 °C23.9 °C82 %1011.2 hPa16.1 kmEast (80°)9.3 km/hPartly Cloudy
3:54 AM27.8 °C23.9 °C79 %1010.8 hPa16.1 kmEast (100°)11.1 km/hScattered Clouds
4:54 AM27.8 °C23.9 °C79 %1011.2 hPa16.1 kmEast (90°)11.1 km/hPartly Cloudy
5:54 AM27.2 °C23.3 °C79 %1011.5 hPa16.1 kmEast (80°)9.3 km/hClear
6:54 AM28.3 °C23.3 °C74 %1011.9 hPa16.1 kmEast (100°)9.3 km/hClear
7:54 AM29.4 °C23.9 °C72 %1012.5 hPa16.1 kmEast (90°)18.5 km/hScattered Clouds
8:27 AM29 °C23 °C70 %1013.5 hPa2.9 kmEast (80°)16.7 km/hHaze
8:37 AM29 °C23 °C70 %1013.2 hPa16.1 kmEast (90°)18.5 km/hScattered Clouds
8:54 AM30 °C23.3 °C67 %1012.5 hPa16.1 kmEast (90°)22.2 km/hScattered Clouds
9:32 AM31 °C23 °C62 %1013.2 hPa16.1 kmEast (90°)18.5 km/h29.6 km/hMostly Cloudy
9:54 AM31.1 °C23.3 °C63 %1012.5 hPa16.1 kmEast (100°)20.4 km/hMostly Cloudy
10:12 AM32 °C23 °C59 %1012.9 hPa16.1 kmEast (80°)18.5 km/hPartly Cloudy
10:32 AM32 °C23 °C59 %1012.9 hPa16.1 kmEast (80°)22.2 km/hMostly Cloudy
10:44 AM32 °C23 °C59 %1012.9 hPa16.1 kmEast (100°)18.5 km/h31.5 km/hScattered Clouds
10:54 AM31.7 °C22.8 °C59 %1011.9 hPa16.1 kmENE (70°)20.4 km/h31.5 km/hScattered Clouds
11:54 AM32.8 °C22.8 °C55 %1011.5 hPa16.1 kmEast (80°)20.4 km/h29.6 km/hPartly Cloudy
12:54 PM32.2 °C23.3 °C59 %1010.8 hPa16.1 kmESE (110°)18.5 km/hMostly Cloudy
1:10 PM32 °C23 °C59 %1011.5 hPa16.1 kmEast (100°)16.7 km/hMostly Cloudy
1:54 PM32.2 °C23.9 °C61 %1010.2 hPa16.1 kmEast (100°)24.1 km/h33.3 km/hScattered Clouds
2:54 PM32.2 °C22.8 °C57 %1009.5 hPa16.1 kmEast (90°)20.4 km/hScattered Clouds
3:54 PM32.2 °C21.7 °C54 %1009.5 hPa16.1 kmEast (90°)18.5 km/h29.6 km/hScattered Clouds
4:54 PM30.6 °C22.8 °C63 %1009.8 hPa16.1 kmEast (100°)20.4 km/hScattered Clouds
5:54 PM30 °C22.8 °C65 %1010.2 hPa16.1 kmENE (70°)22.2 km/hPartly Cloudy
6:54 PM29.4 °C23.3 °C69 %1010.8 hPa16.1 kmENE (70°)13 km/hPartly Cloudy
7:54 PM28.9 °C22.8 °C69 %1011.2 hPa16.1 kmEast (80°)11.1 km/hPartly Cloudy
8:54 PM28.3 °C23.3 °C74 %1011.9 hPa16.1 kmEast (80°)11.1 km/hPartly Cloudy
9:54 PM28.3 °C23.3 °C74 %1012.5 hPa16.1 kmEast (90°)11.1 km/hScattered Clouds
10:54 PM28.3 °C23.3 °C74 %1012.9 hPa16.1 kmEast (100°)13 km/hScattered Clouds
11:54 PM28.3 °C23.3 °C74 %1012.5 hPa16.1 kmEast (90°)11.1 km/hPartly Cloudy
Hourly data recorded from PGUM, located 0 kilometers away from Camp Quezon, Guam







STORIES FROM OUR PARTNERS